Find Weili Kongjian 02-03

NORAD ID: 68352 Int'l Des: 2026-060 Owner: CENTI Country: CN Constellation: future-navigation operational
LEOCIRCULAR

当前视图

正在加载3D地球...

About Weili Kongjian 02-03

Weili Kongjian 02-03 (NORAD 68352) is a future-navigation constellation satellite launched Mar 22, 2026 by CENTI of CN. It operates in LEO, CIRCULAR orbit with a mass of 140.00 kg.

关于 Weili Kongjian 02-03

正在加载描述...

即将过境

Passes for default location (London). Set your location on the main map for personalized predictions.

高度历史

Loading altitude history...

两行轨道根数

1 68352U 26060C 26173.57009527 .00000532 00000-0 13333-3 0 9998
2 68352 54.9817 15.3487 0011726 311.0282 48.9698 14.65259975 13542
Epoch: Jun 22, 2026 • Age: 20 hours

当前状态

高度 689.5 km
速度 7.51 km/s
星下点 46.93°N, 84.25°E
发射日期 Mar 22, 2026
运行时间 0.2 years
类型 other

技术详情

分类 Payload
质量 140.00 kg
干质量 140.00 kg
总质量 140.00 kg
长度 1.00 m
直径 0.50 m
跨度 2.00 m
形状 Box + 2 pan
制造商 DFHS
平台类型 WK01
阶段状态 In Orbit
所有者/国家 CENTI/CN

Most Searched